DELTA 1 DEB, 4499

Orbit data source: Space-Track

DELTA 1 DEB, 4499 is space debris in SSO originally from a launch on Fri, 16 Aug 1968 UTC launched from the Air Force Western Test Range (AFWTR). Debris objects in space refer to the collection of defunct objects orbiting the Earth. Examples of debris include non-operational satellites, rocket bodies, and fragments generated from explosions, collisions, or faulty payload assembly.

Loading next visibility...
Identifier
4499, 1968-069G
Orbit
SSO
Country
Flag of USUS
Related business
Manufacturer
Unknown
Mission
Spacecraft
Bus & Motor
Unknown
Mass
Unknown
Launch date (UTC)
1968-08-16 (58 years ago)
Launch vehicle
Unknown
Launch site
Air Force Western Test Range (AFWTR)
Object type
Payload
Rocket body
Debris
Shape & HBR
Unknown shape, 0.1 m
Radar Cross Section
Small (<0.1 m²)

Expand to show TLE details & history
Last TLE update: 1 day ago

TLE from 1 day ago
0 DELTA 1 DEB
1 04499U 68069G   26120.02198984 -.00000018  00000-0  15409-3 0  9999
2 04499 101.3520 133.4597 0028837  90.6288 298.1536 12.51298337637239
Epoch: 2026-04-30T00:31Z
TLE epoch observation values (Epoch: 2026-04-30T00:31:39.922Z)
Latitude
27.92476°
Longitude
-98.50946°
Altitude
1,451.61 km
Speed
7.144 km/s
True Right ascension
08h 29m 31s
True Declination
27° 47' 43"
Sunlit
Object was in daylight at epoch
Visualization orbit readout
Latitude
Unknown
Longitude
Unknown
Altitude
Unknown
Speed
Unknown
Apparent Right ascension
Unknown
Apparent Declination
Unknown
Sunlit
N/A
Visualization observer readout
Local Sidereal Time
16:47:55
Azimuth
Unknown
Elevation
Unknown
Doppler factor
Unknown
Orbital elements
Apogee altitude
1,479.184 km
Perigee altitude
1,433.998 km
Semi-major axis
7,834.728 km
Eccentricity
0.00288
Inclination
101.352°
RAAN
133.4597°
Arg. of periapsis
90.6288°
True anomaly
297.86175°
Mean anomaly
298.1536°
Eccentric anomaly
298.00773°
Mean motion
3.12973 °/min
Orbital period
115.03 mins
BSTAR
0.00015409
Loading maneuver chart data...
Computing Atmospheric mass density...
Loading historical data...
Loading historical data...
Loading historical data...
Loading historical data...
Loading historical data...
Loading historical data...
Loading historical data...

Documentation

Showing up to 5 results
|